Regional Weather Roundup
Issued by NWS Newport/Morehead, NC

Current Version | Previous Version | Text Only | Print | Product List | Glossary Off
Versions: 1 2 3 4 5 6 7 8 9 10 11 12 13 14 15 16 17 18 19 20 21 22 23 24 25 26 27 28 29 30 31 32 33 34 35 36 37 38 39 40 41 42 43 44 45 46 47 48 49 50
055 ASUS42 KMHX 231614 RWRMHX WEATHER ROUNDUP FOR EASTERN NORTH CAROLINA NATIONAL WEATHER SERVICE NEWPORT/MOREHEAD CITY NC 1200 PM EDT FRI JUN 23 2017 NOTE: "FAIR" INDICATES FEW OR NO CLOUDS BELOW 12,000 FEET WITH NO SIGNIFICANT WEATHER AND/OR OBSTRUCTIONS TO VISIBILITY NCZ015>017-031-032-045>047-102-103-231700- NORTH COAST CITY SKY/WX TMP DP RH WIND PRES REMARKS EDENTON PTSUNNY 83 76 79 CALM 29.98F ELIZABETH CITY CLOUDY 82 77 84 SW13 29.95F KITTY HAWK CLOUDY 83 74 72 CALM 29.97F MANTEO CLOUDY 84 74 72 W13 29.99F $$ NCZ045>047-081-094-103-104-231700- CENTRAL COAST CITY SKY/WX TMP DP RH WIND PRES REMARKS FRISCO MOSUNNY 84 76 76 SW10 30.02S $$ NCZ095-097-098-100-101-231700- SOUTHERN COAST CITY SKY/WX TMP DP RH WIND PRES REMARKS BEAUFORT CLOUDY 84 80 88 SW16 30.02F CEDAR ISLAND NOT AVBL JACKSONVILLE PTSUNNY 87 76 69 SW13G20 30.00F PINEY ISLAND CLOUDY N/A N/A N/A SW13 30.00F WILMINGTON CLOUDY 85 74 69 SW15 30.02F $$ NCZ011>013-027>030-043-044-078>080-089-090>093-098-231700- COASTAL PLAIN CITY SKY/WX TMP DP RH WIND PRES REMARKS AHOSKIE N/A 79 74 85 S3 29.96S CLINTON PTSUNNY 83 77 80 SW7 30.01F ELIZABETHTOWN NOT AVBL GOLDSBORO CLOUDY 84 79 84 SW13 29.98S GREENVILLE CLOUDY 84 77 79 SW13 30.00F HAVELOCK PTSUNNY 87 74 64 SW18 30.01F KENANSVILLE PTSUNNY 86 75 70 SW10G20 30.01S KINSTON PTSUNNY 86 73 66 SW14G20 30.00F NEW BERN MOSUNNY 84 76 76 SW10 30.01F RICHLANDS PTSUNNY 87 77 72 SW9G17 30.01F ROCKY MOUNT CLOUDY 83 76 79 SW13G18 29.97F WASHINGTON PTSUNNY 82 75 80 SW8 29.99F WHITEVILLE CLOUDY 85 74 70 SW10 30.03S $$ AMZ130-135-150-152-154-156-158-170-250-252-270-ANZ085-086-088-633-658-670-231700- MARINE OBSERVATIONS STATION/POSITION TIME TEMP WIND PRES WAVE SWELL AIR SEA DIR/SP/G HT/PER HT/PER (UTC) (F) (DEG/KT/KT) (MB) (FT/S) (FT/S) CHESAPEAKE LIGHT NOT AVBL 64 E VA BEACH 1550 74 72 220/ 12/ 12 1015.2 3/ 9 2/ 9 DUCK 1548 81 63 230/ 11/ 16 1014.4 2 E DUCK NOT AVBL OREGON INLET 1548 210/ 14/ 17 N/A 13E OREGON INLT 1548 72 N/A 3/ 9 2/ 9 HATTERAS CG 1548 82 79 210/ 8/ 13 1016.1 DIAMOND BUOY 1550 80 80 230/ 14/ 16 1016.5 3/ 8 2/ 8 CAPE LOOKOUT 1600 82 220/ 12/ 14 1016.4 BEAUFORT LAB 1548 81 78 230/ 7/ 13 1016.0 30 SE NEW RVR IN 1508 80 81 240/ 14/ 17 1017.5 30 SE NEW RVR IN 1543 80 N/A 4/ 9 27 SE WRIGHTSVLE 1508 79 80 220/ 14/ 19 1017.1 5 SE WRIGHTSVLE 1508 81 79 220/ 10/ 17 1017.0 225 S CAPE HAT 1550 80 82 210/ 12/ 12 1019.7 4/ 8 3/ 8 41 SE CHARLESTON 1550 81 81 220/ 16/ 19 1017.9 4/ 8 2/ 8 $$

USA.gov is the U.S. government's official web portal to all federal, state and local government web resources and services.